This demonstration page uses our WeatherBlox Daily Observations layout. Learn more.

41.55636, -103.73856

Hourly Observations for June 24, 2020

Temp ( °F °C ) Dew Point ( °F °C ) Humidity (%) Winds ( mph kmh ) Pressure ( in mb ) Visibility ( mi km ) Precip ( " mm )
12:58 am 00:58 Clear 82 27.5 41 5.1 24 24 ENE 8 13 29.93 1014 10 16.0934 0 0
1:58 am 01:58 Clear 76 24.4 43 6.2 31 31 ESE 10 17 29.93 1014 10 16.0934 0 0
2:58 am 02:58 Clear 68 20.1 46 7.8 45 45 ESE 14 22 29.94 1014 10 16.0934 0 0
3:58 am 03:58 Clear 67 19.3 44 6.8 44 44 SE 15 24 29.96 1015 10 16.0934 0 0
4:58 am 04:58 Clear 66 18.9 44 6.9 46 46 SE 16 26 29.96 1015 10 16.0934 0 0
5:58 am 05:58 Mostly Clear 65 18.1 47 8.3 53 53 ESE 14 22 29.96 1015 10 16.0934 0 0
6:58 am 06:58 Clear 64 17.7 49 9.4 58 58 SSE 13 20 29.95 1014 10 16.0934 0 0
7:58 am 07:58 Clear 63 17 51 10.3 65 65 S 16 26 29.93 1014 10 16.0934 0 0
8:58 am 08:58 Clear 59 15.2 51 10.4 73 73 ESE 3 6 29.93 1014 10 16.0934 0 0
9:58 am 09:58 Clear 58 14.6 51 10.4 76 76 ESE 3 6 29.92 1013 10 16.0934 0 0
10:58 am 10:58 Clear 57 13.7 50 10.1 79 79 E 6 9 29.92 1013 10 16.0934 0 0
11:58 am 11:58 Sunny 53 11.7 48 9 84 84 SSW 5 7 29.93 1014 10 16.0934 0 0
12:58 pm 12:58 Sunny 60 15.5 51 10.3 71 71 SSW 7 11 29.91 1013 10 16.0934 0 0
1:58 pm 13:58 Sunny 65 18.4 52 10.9 62 62 SSW 3 6 29.91 1013 10 16.0934 0 0
2:58 pm 14:58 Sunny 73 22.6 52 11.3 49 49 Calm 29.89 1012 10 16.0934 0 0
3:58 pm 15:58 Sunny 78 25.6 51 10.6 39 39 N 3 6 29.89 1012 10 16.0934 0 0
4:58 pm 16:58 Sunny 81 27.1 49 9.7 34 34 NNE 6 9 29.87 1012 10 16.0934 0 0
5:58 pm 17:58 Sunny 86 30 46 8 25 25 NE 9 15 29.85 1011 10 16.0934 0 0
6:58 pm 18:58 Sunny 87 30.3 45 7 23 23 W 3 6 29.84 1011 10 16.0934 0 0
7:58 pm 19:58 Mostly Sunny 89 31.5 44 6.4 21 21 NNW 6 9 29.83 1010 10 16.0934 0 0
8:58 pm 20:58 Sunny 91 32.6 41 5.1 18 18 NNW 7 11 29.81 1010 10 16.0934 0 0
9:58 pm 21:58 Sunny 89 31.8 35 1.8 15 15 W 3 6 29.81 1009 10 16.0934 0 0
10:58 pm 22:58 Sunny 91 32.6 42 5.6 18 18 ESE 12 19 29.78 1008 10 16.0934 0 0
11:58 pm 23:58 Sunny 89 31.9 40 4.2 17 17 E 3 6 29.77 1008 10 16.0934 0 0

Powered by AerisWeather